DIAMANT R/B, 2017

Orbit data source: Space-Track

DIAMANT R/B, 2017 is space debris in LEO originally from a launch on Thu, 17 Feb 1966 UTC launched from the Hamma Guira Space Track Range (HGSTR). Debris objects in space refer to the collection of defunct objects orbiting the Earth. Examples of debris include non-operational satellites, rocket bodies, and fragments generated from explosions, collisions, or faulty payload assembly.

Loading next visibility...
Identifier
2017, 1966-013B
Orbit
LEO
Last TLE update
6 hours ago
Origin
Manufacturer
Sud
Mission
Spacecraft
Bus & Motor
RUBIS, Unknown motor
Mass
65 kg wet, 65 kg dry
Launch date (UTC)
1966-02-17 (59 years ago)
Launch vehicle
Unknown
Launch site
Hamma Guira Space Track Range (HGSTR)
Object type
Payload
Rocket body
Debris
Shape & HBR
Cyl, 2.1 m
Radar Cross Section
1.347 m², Medium (>0.1 m² and < 1m²)

Expand to show TLE details & history

TLE from 6 hours ago
0 DIAMANT R/B
1 02017U 66013B   25128.93185926  .00002410  00000-0  63473-3 0  9990
2 02017  34.0619  82.9735 1042535  97.4397 274.5702 12.91815927717443
Epoch: 2025-05-08T22:21Z
Definitive object data (Epoch: 2025-05-08T22:21:52.64Z)
Latitude
-0.00001°
Longitude
-119.49112°
Altitude
1,312.803 km
Speed
7.193 km/s
True Right ascension
05h 31m 53s
True Declination
0° 00' 00"
Sunlit
Object was in daylight at TLE epoch
Visualization TLE readout
Latitude
-6.18441°
Longitude
68.49982°
Altitude
1,235.665 km
Speed
7.266 km/s
Apparent Right ascension
20h 29m 36s
Apparent Declination
-31° 18' 22"
Sunlit
Object is in full shadow
Visualization observer readout
Local Sidereal Time
12:56:01
Azimuth
102.987° ESE
Elevation
-36.414°
Doppler factor
1
Orbital elements
Apogee altitude
2,097.624 km
Perigee altitude
497.216 km
Semi-major axis
7,675.557 km
Eccentricity
0.1042535
Inclination
34.0619°
RAAN
82.9735°
Arg. of periapsis
97.4397°
True anomaly
262.62395°
Mean anomaly
274.5702°
Eccentric anomaly
268.5987°
Mean motion
3.22759 °/min
BSTAR
0.00063473
Orbital period
111.54 mins
Loading maneuver chart data...
Loading SW <> Apogee altitude chart data...

DIAMANT R/B Visibility forecast

Observer location: undefined°, undefined°

Span
Click to sort rows by Start time (UTC) header in descending order
Start Az.
Max El. time (UTC)
Max El. Az.
Max El.
End time (UTC)
End Az.
6 mins2025-05-10 00:35:27.912Z205.25° SW2025-05-10 00:38:27.912Z158.811° S21.33°2025-05-10 00:41:27.912Z112.447° ESE
5 mins2025-05-10 02:33:27.912Z228.485° WSW2025-05-10 02:35:27.912Z177.193° S29.671°2025-05-10 02:38:27.912Z114.2° SE
4 mins2025-05-10 04:31:27.912Z220.359° SW2025-05-10 04:32:27.912Z194.74° SSW22.408°2025-05-10 04:35:27.912Z138.756° SSE
|